[[{"header":{"parameterUnit":"m.s-1","parameterCategory":1,"la1":30.2991,"la2":30.254,"lo1":-89.0895,"lo2":-89.0444,"dy":0.0017,"dx":0.0017,"nx":28,"ny":28,"refTime":"2025-06-16T03:00:00:Z","depth":0,"parameterNumber":2,"parameterNumberName":"U-component_of_WINDS"},"data":[0,0,0,0,0,0,0,0,0,0,0,0,0,0,0,0,0,0,0,0,0,0,0,0,0,0,0,0,0,0,0,0,0,0,0,0,0,0,0,0,0,0,0,0,0,0,0,0,0,0,0,0,0,0,0,0,0,0,0.2032,0.2034,0,0.221,0.2212,0.2214,0.2298,0.2298,0.2298,0.2298,0.2482,0.2487,0.2492,0,0,0,0,0,0,0,0,0,0,0,0,0,0.1769,0.1773,0.2032,0.2034,0.2037,0.2209,0.2212,0.2214,0.2298,0.2298,0.2298,0.2298,0.2481,0.2486,0.2492,0,0,0,0,0,0,0,0,0,0,0,0,0,0.1908,0.1774,0.2032,0.2099,0.2107,0.2209,0.2212,0.2215,0.2298,0.2298,0.2298,0.2298,0.2479,0.2486,0.2493,0.2542,0,0,0.2516,0.2519,0,0,0,0,0,0,0,0,0.19,0.1918,0.2087,0.2095,0.2104,0.2232,0.2186,0.2325,0.2298,0.2226,0.2298,0.2298,0.2399,0.2413,0.2447,0.2551,0.2558,0.2517,0.2521,0.2525,0.2527,0,0,0,0,0,0,0,0.189,0.1911,0.2102,0.209,0.21,0.2122,0.2141,0.2213,0.2311,0.2232,0.2239,0.2258,0.2404,0.2439,0.2452,0.2561,0.2517,0.2523,0.2528,0.2531,0.2714,0.2715,0,0,0,0,0,0,0.1869,0.1902,0.2097,0.2108,0.1999,0.2126,0.2148,0.2191,0.2311,0.2329,0.2258,0.2262,0.2427,0.2443,0.2458,0.2524,0.2524,0.2531,0.2536,0.2714,0.2715,0.2715,0,0,0,0,0,0,0.1863,0.1886,0.209,0.2007,0.2034,0.2131,0.2178,0.2194,0.223,0.233,0.2348,0.2277,0.2427,0.2448,0.2521,0.2532,0.2535,0.2542,0.2714,0.2714,0.2715,0.2654,0,0,0,0,0,0,0.1855,0.1883,0.1902,0.2006,0.2038,0.2148,0.2179,0.2198,0.2242,0.2249,0.2352,0.2369,0.2429,0.2509,0.2528,0.2542,0.2547,0.2713,0.2714,0.2715,0.2656,0.2653,0.265,0,0,0,0,0,0.1846,0.1879,0.1903,0.1926,0.2064,0.2148,0.2167,0.2233,0.2243,0.2263,0.2328,0.2366,0.2527,0.2516,0.2538,0.2554,0.2713,0.2714,0.2715,0.2657,0.2654,0.265,0,0,0,0,0,0,0.1774,0.1894,0.1922,0.1989,0.2058,0.2162,0.219,0.2227,0.2295,0.2298,0.2379,0.2402,0.2467,0.2518,0.2503,0.2608,0.2624,0.2629,0.2572,0.257,0.2567,0.2554,0.2554,0,0,0,0,0,0.1766,0.1823,0.1925,0.1975,0.2008,0.2092,0.2132,0.2177,0.2252,0.2282,0.2352,0.2423,0.249,0.2533,0.26,0.2663,0.2688,0.2686,0.2683,0.268,0.2684,0.2722,0.2722,0.2718,0.2718,0.2718,0,0,0.175,0.1822,0.1854,0.1962,0.2021,0.208,0.2117,0.2177,0.2222,0.2291,0.2364,0.2417,0.2503,0.2571,0.2605,0.2616,0.269,0.2681,0.2678,0.2684,0.2723,0.2723,0.2723,0.2719,0.2718,0.2718,0,0,0.1751,0.1811,0.1859,0.1917,0.2005,0.2061,0.2073,0.2172,0.221,0.2284,0.2337,0.2392,0.2505,0.2564,0.2609,0.2631,0.267,0.2651,0.2637,0.2673,0.2673,0.2674,0.2683,0.2685,0.2654,0.2654,0.2654,0,0.172,0.181,0.188,0.1937,0.1984,0.2048,0.2098,0.2151,0.2257,0.2287,0.2298,0.2441,0.2503,0.2586,0.2592,0.2626,0.2642,0.264,0.2667,0.2669,0.2671,0.268,0.2683,0.2651,0.2652,0.2652,0.2652,0,0.1769,0.183,0.1859,0.1958,0.2008,0.2061,0.2139,0.2181,0.2222,0.2277,0.2352,0.2428,0.2512,0.2535,0.2576,0.2624,0.2628,0.2652,0.2669,0.2667,0.2677,0.2681,0.2647,0.2648,0.2649,0.265,0,0,0.173,0.1867,0.1876,0.1923,0.2024,0.2074,0.213,0.2211,0.2246,0.2316,0.2366,0.246,0.2482,0.2533,0.2581,0.2612,0.2626,0.2633,0.2636,0.2629,0.2685,0.2667,0.267,0.2652,0.2653,0.2654,0.2678,0,0.1746,0.185,0.1914,0.1992,0.205,0.2112,0.2162,0.2229,0.2282,0.234,0.2399,0.2464,0.2488,0.2519,0.2553,0.2617,0.2639,0.2616,0.27,0.2702,0.2678,0.2676,0.2657,0.2677,0.2683,0.2683,0.2684,0,0.1779,0.1847,0.193,0.2026,0.2053,0.2096,0.2175,0.2229,0.2308,0.2344,0.24,0.2448,0.2511,0.2523,0.2611,0.2594,0.2632,0.2669,0.2671,0.2683,0.2693,0.2688,0.2685,0.2688,0.2691,0.269,0.269,0,0.1743,0.1856,0.1921,0.1958,0.2071,0.21,0.2148,0.2226,0.2271,0.2341,0.2371,0.2447,0.2489,0.2547,0.2615,0.2617,0.2696,0.2713,0.2729,0.2728,0.2744,0.2742,0.2748,0.2767,0.2767,0.2767,0.2767,0,0.1755,0.1804,0.1906,0.1946,0.2003,0.2076,0.2131,0.2184,0.2253,0.2305,0.2363,0.2411,0.2497,0.2556,0.2609,0.2674,0.2693,0.2725,0.2738,0.272,0.2716,0.2747,0.2748,0.2768,0.2767,0.2767,0.2767,0,0.1725,0.1796,0.187,0.1971,0.1997,0.2034,0.2121,0.2162,0.2218,0.2283,0.2302,0.239,0.2462,0.2535,0.2632,0.2668,0.2732,0.275,0.2705,0.2713,0.2725,0.2723,0.2752,0.2759,0.2771,0.2771,0.2771,0,0.1728,0.1767,0.1871,0.191,0.1957,0.2018,0.2064,0.2138,0.2183,0.2275,0.2306,0.2381,0.2446,0.2558,0.2631,0.2706,0.2727,0.2732,0.2739,0.2719,0.2728,0.2725,0.273,0.2729,0.2729,0.2728,0.2728,0,0.1726,0.1759,0.1823,0.1898,0.1951,0.2014,0.208,0.2108,0.2195,0.2243,0.2317,0.2367,0.2465,0.254,0.2623,0.2674,0.2716,0.2725,0.2733,0.2715,0.2687,0.2703,0.2699,0.2724,0.2725,0.2725,0.2725,0.2725,0.1714,0.1752,0.1831,0.19,0.1957,0.2016,0.206,0.2121,0.2184,0.2269,0.2309,0.2383,0.2461,0.2577,0.2627,0.2686,0.2698,0.2709,0.2712,0.2714,0.2709,0.2676,0.2702,0.2702,0.2702,0.2702,0.2702,0,0.1716,0.177,0.1832,0.1922,0.1976,0.2009,0.2083,0.2127,0.2191,0.226,0.2322,0.2407,0.248,0.2558,0.2635,0.2668,0.2689,0.2686,0.2685,0.2696,0.2694,0.268,0.2668,0.2668,0.2668,0.2668,0.2668,0.2668,0.1723,0.1789,0.1831,0.1926,0.198,0.2053,0.2092,0.2148,0.2203,0.2295,0.2355,0.2406,0.2479,0.2562,0.263,0.2652,0.2678,0.267,0.2696,0.2694,0.2696,0.2699,0.2686,0.2674,0.2674,0.2693,0.2693,0.2693]},{"header":{"parameterUnit":"m.s-1","parameterCategory":1,"la1":30.2991,"la2":30.254,"lo1":-89.0895,"lo2":-89.0444,"dy":0.0017,"dx":0.0017,"nx":28,"ny":28,"refTime":"2025-06-16T03:00:00:Z","depth":0,"parameterNumber":3,"parameterNumberName":"V-component_of_WINDS"},"data":[0,0,0,0,0,0,0,0,0,0,0,0,0,0,0,0,0,0,0,0,0,0,0,0,0,0,0,0,0,0,0,0,0,0,0,0,0,0,0,0,0,0,0,0,0,0,0,0,0,0,0,0,0,0,0,0,0,0,4.7074,4.7074,0,4.7075,4.7075,4.7075,4.7068,4.7068,4.7068,4.7068,4.7067,4.7067,4.7067,0,0,0,0,0,0,0,0,0,0,0,0,0,4.7066,4.7067,4.7074,4.7074,4.7074,4.7075,4.7075,4.7075,4.7068,4.7068,4.7068,4.7067,4.7067,4.7067,4.7067,0,0,0,0,0,0,0,0,0,0,0,0,0,4.7069,4.7067,4.7074,4.7071,4.7071,4.7075,4.7075,4.7075,4.7068,4.7068,4.7068,4.7067,4.7067,4.7067,4.7067,4.7074,0,0,4.7068,4.7068,0,0,0,0,0,0,0,0,4.7069,4.7069,4.7072,4.7071,4.7071,4.7071,4.7072,4.7075,4.7068,4.7069,4.7068,4.7067,4.7068,4.7068,4.7069,4.7074,4.7074,4.7068,4.7068,4.7068,4.7068,0,0,0,0,0,0,0,4.7068,4.7069,4.7075,4.7072,4.7071,4.7069,4.7069,4.7072,4.707,4.7069,4.7069,4.7069,4.7068,4.7069,4.7069,4.7074,4.7068,4.7068,4.7068,4.7068,4.7085,4.7086,0,0,0,0,0,0,4.7069,4.7069,4.7075,4.7075,4.7069,4.707,4.707,4.7071,4.707,4.707,4.7069,4.7068,4.7069,4.7069,4.7069,4.7078,4.7068,4.7068,4.7068,4.7085,4.7085,4.7086,0,0,0,0,0,0,4.7069,4.707,4.7075,4.7072,4.7072,4.707,4.7072,4.7072,4.7072,4.707,4.707,4.707,4.7068,4.7069,4.7073,4.7077,4.7068,4.7069,4.7085,4.7085,4.7085,4.7094,0,0,0,0,0,0,4.7069,4.707,4.7072,4.7072,4.7072,4.7079,4.7072,4.7072,4.7073,4.7072,4.7071,4.7071,4.7068,4.7073,4.7073,4.7078,4.7069,4.7084,4.7085,4.7085,4.7094,4.7095,4.7096,0,0,0,0,0,4.7068,4.7074,4.7072,4.7073,4.7076,4.7079,4.7079,4.7077,4.7073,4.7076,4.7075,4.7071,4.7077,4.7073,4.7074,4.7078,4.7084,4.7085,4.7085,4.7093,4.7095,4.7096,0,0,0,0,0,0,4.7074,4.7074,4.7072,4.7078,4.7079,4.7078,4.7081,4.7079,4.708,4.7079,4.7075,4.7075,4.708,4.708,4.7076,4.7085,4.708,4.7081,4.7085,4.7087,4.7088,4.7088,4.7069,0,0,0,0,0,4.7077,4.708,4.7079,4.7084,4.7085,4.7083,4.7085,4.7083,4.7083,4.7083,4.7082,4.7082,4.7084,4.7086,4.7087,4.7094,4.7093,4.7097,4.7098,4.7099,4.71,4.7104,4.7106,4.7088,4.7088,4.7088,0,0,4.7081,4.7081,4.7083,4.7086,4.7086,4.7089,4.7083,4.7087,4.7089,4.7083,4.7088,4.7087,4.7087,4.7093,4.7095,4.7092,4.7105,4.71,4.7101,4.7101,4.7105,4.7107,4.7108,4.7088,4.7088,4.7088,0,0,4.709,4.7091,4.7096,4.7096,4.7097,4.7096,4.7098,4.7097,4.7097,4.7101,4.7097,4.71,4.7103,4.7104,4.7104,4.7115,4.7112,4.7116,4.7123,4.7126,4.7128,4.7129,4.7133,4.7135,4.7116,4.7116,4.7116,0,4.7095,4.7101,4.7098,4.7103,4.7104,4.71,4.7105,4.7105,4.7106,4.7107,4.7104,4.7109,4.7109,4.7115,4.7117,4.7118,4.7119,4.7116,4.7128,4.7129,4.713,4.7134,4.7136,4.7117,4.7117,4.7117,4.7117,0,4.7107,4.7111,4.7114,4.7117,4.7118,4.7123,4.7121,4.7123,4.7121,4.7121,4.7125,4.7125,4.7127,4.7128,4.7126,4.7134,4.7132,4.7129,4.7123,4.7132,4.7136,4.7138,4.7118,4.7118,4.7117,4.7117,0,0,4.712,4.7122,4.7123,4.7124,4.7126,4.7128,4.7133,4.7135,4.7137,4.7138,4.7142,4.7145,4.7142,4.7143,4.7141,4.7144,4.7153,4.714,4.714,4.7143,4.7163,4.7166,4.7168,4.7151,4.7151,4.7152,4.7163,0,4.7129,4.7138,4.7136,4.7144,4.7148,4.7144,4.7148,4.7149,4.7149,4.7151,4.715,4.7153,4.7149,4.7149,4.7152,4.7152,4.7157,4.7151,4.7155,4.7155,4.7155,4.717,4.7173,4.7183,4.7164,4.7165,4.7165,0,4.7141,4.7144,4.7153,4.7154,4.7156,4.7159,4.7162,4.7165,4.7166,4.7165,4.7167,4.7164,4.7168,4.7163,4.7169,4.7165,4.7166,4.7166,4.7166,4.7167,4.7161,4.7171,4.7187,4.7189,4.7167,4.7167,4.7167,0,4.7151,4.7156,4.7162,4.7164,4.7165,4.7168,4.7169,4.717,4.7172,4.7174,4.7175,4.7177,4.7179,4.7181,4.7179,4.7175,4.7185,4.7179,4.7185,4.7185,4.7187,4.7187,4.7204,4.7188,4.7188,4.7188,4.7188,0,4.7162,4.7167,4.7167,4.717,4.7177,4.7175,4.7181,4.7181,4.7182,4.7186,4.7183,4.7186,4.7183,4.7186,4.7185,4.719,4.7191,4.719,4.719,4.7191,4.7191,4.7192,4.7191,4.7188,4.7188,4.7188,4.7188,0,4.7173,4.7173,4.7179,4.7181,4.7181,4.7186,4.7187,4.719,4.719,4.7195,4.7196,4.7195,4.7199,4.7197,4.72,4.7199,4.7207,4.7205,4.7207,4.7206,4.7212,4.7212,4.7231,4.7233,4.7215,4.7215,4.7215,0,4.718,4.7184,4.7187,4.7189,4.7191,4.7195,4.7197,4.7196,4.7198,4.7201,4.7204,4.7207,4.721,4.7216,4.7215,4.7218,4.7217,4.7223,4.7217,4.7218,4.7217,4.7217,4.7218,4.7224,4.7225,4.7225,4.7225,0,4.7193,4.7193,4.7197,4.7201,4.7204,4.7207,4.7209,4.7211,4.721,4.7213,4.7217,4.722,4.7224,4.7227,4.723,4.723,4.7228,4.7227,4.7228,4.723,4.7231,4.7231,4.721,4.7226,4.7226,4.7226,4.7226,4.7226,4.7202,4.7207,4.7209,4.7214,4.7216,4.7219,4.7222,4.7223,4.7227,4.723,4.7229,4.7234,4.7236,4.7239,4.724,4.7244,4.7241,4.7243,4.7244,4.7245,4.7246,4.723,4.7244,4.7244,4.7244,4.7244,4.7244,0,4.7216,4.7218,4.7222,4.7226,4.723,4.7228,4.7231,4.7234,4.7238,4.724,4.7244,4.7249,4.7252,4.7253,4.7256,4.7259,4.7258,4.726,4.726,4.726,4.7247,4.7246,4.7261,4.7261,4.7261,4.7261,4.7261,4.7261,4.7223,4.723,4.7231,4.7239,4.724,4.7246,4.7248,4.725,4.7252,4.7259,4.7262,4.7262,4.7264,4.7267,4.7271,4.7271,4.7272,4.7275,4.7275,4.7263,4.7261,4.7259,4.7258,4.7275,4.7275,4.7287,4.7287,4.7287]}]]